This demonstration page uses our WeatherBlox Daily Observations layout. Learn more.

Hourly Observations for May 29, 2015

Temp ( °F °C ) Dew Point ( °F °C ) Humidity (%) Winds ( mph kmh ) Pressure ( in mb ) Visibility ( mi km ) Precip ( " mm )
12:15 am 00:15 Partly Cloudy 61 16 54 12 77 77 Calm 29.88 1012 10 16.09344 0 0
12:35 am 00:35 Mostly Cloudy 61 16 54 12 77 77 Calm 29.88 1012 10 16.09344 0 0
12:55 am 00:55 Mostly Cloudy 61 16 52 11 72 72 SE 6 9 29.88 1012 10 16.09344 0 0
1:15 am 01:15 Partly Cloudy 59 15 54 12 82 82 Calm 29.91 1013 10 16.09344 0 0
1:35 am 01:35 Partly Cloudy 59 15 52 11 77 77 WNW 6 9 29.91 1013 10 16.09344 0 0
1:55 am 01:55 Mostly Cloudy 59 15 54 12 82 82 W 3 6 29.91 1013 10 16.09344 0 0
2:15 am 02:15 Cloudy 59 15 54 12 82 82 WNW 8 13 29.91 1013 10 16.09344 0 0
2:35 am 02:35 Cloudy 59 15 54 12 82 82 W 12 19 29.94 1014 10 16.09344 0 0
2:55 am 02:55 Mostly Cloudy 59 15 54 12 82 82 WNW 10 17 29.91 1013 10 16.09344 0 0
3:15 am 03:15 Cloudy 59 15 54 12 82 82 W 7 11 29.91 1013 10 16.09344 0 0
3:35 am 03:35 Partly Cloudy 59 15 54 12 82 82 W 9 15 29.91 1013 10 16.09344 0 0
3:55 am 03:55 Clear 59 15 54 12 82 82 W 7 11 29.88 1012 10 16.09344 0 0
4:15 am 04:15 Clear 59 15 54 12 82 82 W 6 9 29.88 1012 10 16.09344 0 0
4:35 am 04:35 Clear 59 15 54 12 82 82 WSW 5 7 29.88 1012 10 16.09344 0 0
4:55 am 04:55 Clear 59 15 52 11 77 77 W 9 15 29.88 1012 10 16.09344 0 0
5:15 am 05:15 Clear 57 14 52 11 82 82 SW 5 7 29.88 1012 10 16.09344 0 0
5:35 am 05:35 Partly Cloudy 57 14 52 11 82 82 W 5 7 29.91 1013 10 16.09344 0 0
5:55 am 05:55 Clear 57 14 52 11 82 82 WNW 6 9 29.91 1013 10 16.09344 0 0
6:15 am 06:15 Partly Cloudy 55 13 52 11 88 88 WNW 5 7 29.94 1014 10 16.09344 0 0
6:35 am 06:35 Partly Cloudy 55 13 52 11 88 88 NW 3 6 29.94 1014 10 16.09344 0 0
6:55 am 06:55 Partly Cloudy 55 13 52 11 88 88 NW 3 6 29.94 1014 10 16.09344 0 0
7:15 am 07:15 Partly Cloudy 55 13 52 11 88 88 NW 6 9 29.94 1014 10 16.09344 0 0
7:35 am 07:35 Sunny 55 13 54 12 94 94 NW 5 7 29.94 1014 10 16.09344 0 0
7:55 am 07:55 Sunny 59 15 55 13 88 88 NW 7 11 29.94 1014 10 16.09344 0 0
8:15 am 08:15 Sunny 61 16 55 13 83 83 NNW 9 15 29.91 1013 10 16.09344 0 0
8:35 am 08:35 Sunny 63 17 55 13 77 77 NNW 10 17 29.91 1013 10 16.09344 0 0
8:55 am 08:55 Sunny 64 18 55 13 73 73 NW 13 20 29.91 1013 10 16.09344 0 0
9:15 am 09:15 Sunny 64 18 55 13 73 73 NNW 15 24 29.91 1013 10 16.09344 0 0
9:35 am 09:35 Sunny 66 19 55 13 68 68 NNW 10 17 29.94 1014 10 16.09344 0 0
9:55 am 09:55 Sunny 68 20 55 13 64 64 NW 12 19 29.91 1013 10 16.09344 0 0
10:15 am 10:15 Sunny 68 20 55 13 64 64 NNW 8 13 29.91 1013 10 16.09344 0 0
10:35 am 10:35 Sunny 70 21 54 12 57 57 NNW 8 13 29.91 1013 10 16.09344 0 0
10:55 am 10:55 Sunny 70 21 54 12 57 57 NNW 8 13 29.91 1013 10 16.09344 0 0
11:15 am 11:15 Sunny 72 22 52 11 50 50 NNW 8 13 29.91 1013 10 16.09344 0 0
11:35 am 11:35 Sunny 72 22 52 11 50 50 N 10 17 29.91 1013 10 16.09344 0 0
11:55 am 11:55 Sunny 73 23 52 11 47 47 NNW 10 17 29.91 1013 10 16.09344 0 0
12:15 pm 12:15 Sunny 73 23 52 11 47 47 NNW 8 13 29.91 1013 10 16.09344 0 0
12:35 pm 12:35 Partly Cloudy 75 24 54 12 47 47 N 9 15 29.88 1012 10 16.09344 0 0
12:55 pm 12:55 Partly Cloudy 75 24 54 12 47 47 N 8 13 29.88 1012 10 16.09344 0 0
1:15 pm 13:15 Partly Cloudy 73 23 54 12 50 50 NNW 9 15 29.91 1013 10 16.09344 0 0
1:35 pm 13:35 Mostly Cloudy 75 24 54 12 47 47 NNW 10 17 29.88 1012 10 16.09344 0 0
1:55 pm 13:55 Mostly Cloudy 75 24 54 12 47 47 NNW 10 17 29.88 1012 10 16.09344 0 0
2:15 pm 14:15 Mostly Cloudy 73 23 54 12 50 50 NW 8 13 29.91 1013 10 16.09344 0 0
2:35 pm 14:35 Mostly Cloudy 73 23 52 11 47 47 NNW 14 22 29.91 1013 10 16.09344 0 0
2:55 pm 14:55 Mostly Cloudy 75 24 52 11 44 44 NNW 9 15 29.88 1012 10 16.09344 0 0
3:15 pm 15:15 Mostly Cloudy 75 24 50 10 41 41 NNW 10 17 29.88 1012 10 16.09344 0 0
3:35 pm 15:35 Partly Cloudy 75 24 52 11 44 44 NNE 15 24 29.88 1012 10 16.09344 0 0
3:55 pm 15:55 Partly Cloudy 75 24 52 11 44 44 N 13 20 29.88 1012 10 16.09344 0 0
4:15 pm 16:15 Partly Cloudy 75 24 55 13 50 50 N 16 26 29.88 1012 10 16.09344 0 0
4:35 pm 16:35 Mostly Cloudy 70 21 54 12 57 57 N 25 41 29.91 1013 10 16.09344 0 0
4:55 pm 16:55 Mostly Cloudy 70 21 55 13 60 60 N 18 30 29.91 1013 10 16.09344 0 0
5:15 pm 17:15 Partly Cloudy 70 21 55 13 60 60 N 20 31 29.91 1013 10 16.09344 0 0
5:35 pm 17:35 Partly Cloudy 68 20 52 11 56 56 N 24 39 29.94 1014 10 16.09344 0 0
5:55 pm 17:55 Mostly Cloudy 63 17 52 11 68 68 N 26 43 29.97 1015 10 16.09344 0 0
6:15 pm 18:15 Cloudy with Rain 59 15 52 11 77 77 N 22 35 30.03 1017 10 16.09344 0 0
6:35 pm 18:35 Cloudy with Rain 57 14 54 12 88 88 NNW 26 43 30.06 1018 7 11.265408 0.04 1.016
6:55 pm 18:55 Cloudy with Light Rain 57 14 54 12 88 88 N 22 35 30.03 1017 10 16.09344 0.07 1.778
7:15 pm 19:15 Cloudy with Light Rain 55 13 52 11 88 88 NNE 23 37 30.06 1018 10 16.09344 0.02 0.508
7:35 pm 19:35 Mostly Cloudy 57 14 54 12 88 88 N 22 35 30.06 1018 10 16.09344 0.02 0.508
7:55 pm 19:55 Mostly Cloudy 57 14 52 11 82 82 N 26 43 30.06 1018 10 16.09344 0.02 0.508
8:15 pm 20:15 Cloudy 55 13 52 11 88 88 N 22 35 30.12 1020 10 16.09344 0 0
8:35 pm 20:35 Cloudy 55 13 50 10 82 82 N 20 31 30.12 1020 10 16.09344 0 0
8:55 pm 20:55 Cloudy 54 12 48 9 82 82 N 23 37 30.12 1020 10 16.09344 0 0
9:15 pm 21:15 Cloudy 54 12 48 9 82 82 N 24 39 30.12 1020 10 16.09344 0 0
9:35 pm 21:35 Cloudy 54 12 48 9 82 82 N 17 28 30.12 1020 10 16.09344 0 0
9:55 pm 21:55 Cloudy 54 12 48 9 82 82 N 22 35 30.12 1020 10 16.09344 0 0
10:15 pm 22:15 Cloudy 52 11 48 9 88 88 N 23 37 30.15 1021 10 16.09344 0 0
10:35 pm 22:35 Cloudy 52 11 46 8 82 82 N 16 26 30.15 1021 10 16.09344 0 0
10:55 pm 22:55 Cloudy 52 11 46 8 82 82 N 21 33 30.15 1021 10 16.09344 0 0
11:15 pm 23:15 Cloudy 50 10 46 8 88 88 N 17 28 30.18 1022 10 16.09344 0 0
11:35 pm 23:35 Cloudy 50 10 46 8 88 88 N 23 37 30.21 1023 10 16.09344 0 0
11:55 pm 23:55 Cloudy 50 10 46 8 88 88 N 21 33 30.21 1023 10 16.09344 0 0

Powered by AerisWeather